Time,TemperatureF,DewpointF,PressureIn,WindDirection,WindDirectionDegrees,WindSpeedMPH,WindSpeedGustMPH,Humidity,HourlyPrecipIn,Conditions,Clouds,dailyrainin,SoftwareType,DateUTC
2013-01-12 00:02:00,36.0,36.0,-100.00,SE,130,8.0,11.0,99,0.00,,,0.00,,2013-01-12 00:02:00,
2013-01-12 00:12:00,36.0,36.0,-100.00,SE,145,9.0,11.0,99,0.00,,,0.00,,2013-01-12 00:12:00,
2013-01-12 01:02:00,37.0,37.0,-100.00,SSE,160,9.0,13.0,99,0.00,,,0.00,,2013-01-12 01:02:00,
2013-01-12 01:12:00,38.0,37.0,-100.00,SSE,150,9.0,12.0,99,0.00,,,0.00,,2013-01-12 01:12:00,
2013-01-12 01:22:00,38.0,37.0,-100.00,SSE,160,8.0,11.0,99,0.00,,,0.00,,2013-01-12 01:22:00,
2013-01-12 01:32:00,38.0,37.0,-100.00,SSE,160,10.0,12.0,99,0.00,,,0.00,,2013-01-12 01:32:00,
2013-01-12 01:42:00,38.0,37.0,-100.00,SSE,165,9.0,12.0,99,0.00,,,0.00,,2013-01-12 01:42:00,
2013-01-12 01:52:00,38.0,37.0,-100.00,South,170,9.0,11.0,99,0.00,,,0.00,,2013-01-12 01:52:00,
2013-01-12 02:02:00,38.0,37.0,-100.00,South,170,9.0,12.0,99,0.00,,,0.00,,2013-01-12 02:02:00,
2013-01-12 02:12:00,38.0,37.0,-100.00,SSE,165,6.0,11.0,99,0.00,,,0.00,,2013-01-12 02:12:00,
2013-01-12 02:22:00,38.0,37.0,-100.00,South,175,9.0,13.0,99,0.00,,,0.00,,2013-01-12 02:22:00,
2013-01-12 04:12:00,38.0,37.0,-100.00,SSW,200,14.0,19.0,99,0.00,,,0.00,,2013-01-12 04:12:00,
2013-01-12 04:22:00,38.0,37.0,-100.00,SSW,210,15.0,17.0,99,0.00,,,0.00,,2013-01-12 04:22:00,
2013-01-12 04:32:00,38.0,37.0,-100.00,SSW,210,15.0,19.0,99,0.00,,,0.00,,2013-01-12 04:32:00,
2013-01-12 05:22:00,36.0,36.0,-100.00,SW,225,11.0,15.0,99,0.00,,,0.00,,2013-01-12 05:22:00,
2013-01-12 05:32:00,36.0,36.0,-100.00,WSW,240,11.0,16.0,99,0.00,,,0.00,,2013-01-12 05:32:00,
2013-01-12 05:42:00,36.0,36.0,-100.00,SW,230,13.0,17.0,99,0.00,,,0.00,,2013-01-12 05:42:00,
2013-01-12 05:52:00,36.0,36.0,-100.00,SW,235,9.0,16.0,99,0.00,,,0.00,,2013-01-12 05:52:00,
2013-01-12 06:32:00,35.0,34.0,-100.00,SW,225,7.0,12.0,99,0.00,,,0.00,,2013-01-12 06:32:00,
2013-01-12 06:42:00,34.0,34.0,-100.00,WSW,245,10.0,16.0,99,0.00,,,0.00,,2013-01-12 06:42:00,
2013-01-12 06:52:00,32.0,32.0,-100.00,West,260,16.0,20.0,99,0.00,,,0.00,,2013-01-12 06:52:00,
2013-01-12 07:02:00,31.0,30.0,-100.00,WSW,255,19.0,23.0,99,0.00,,,0.00,,2013-01-12 07:02:00,
2013-01-12 07:12:00,30.0,30.0,-100.00,WSW,250,16.0,24.0,99,0.00,,,0.00,,2013-01-12 07:12:00,
2013-01-12 07:22:00,28.0,28.0,-100.00,WSW,240,21.0,24.0,99,0.00,,,0.00,,2013-01-12 07:22:00,
2013-01-12 07:32:00,27.0,27.0,-100.00,WSW,245,19.0,29.0,99,0.00,,,0.00,,2013-01-12 07:32:00,
2013-01-12 07:42:00,25.0,25.0,-100.00,WSW,255,24.0,32.0,98,0.00,,,0.00,,2013-01-12 07:42:00,
2013-01-12 07:52:00,24.0,23.0,-100.00,WSW,250,22.0,32.0,96,0.00,,,0.00,,2013-01-12 07:52:00,
2013-01-12 08:02:00,24.0,23.0,-100.00,WSW,255,20.0,30.0,96,0.00,,,0.00,,2013-01-12 08:02:00,
2013-01-12 08:12:00,23.0,21.0,-100.00,West,265,26.0,34.0,95,0.00,,,0.00,,2013-01-12 08:12:00,
2013-01-12 08:22:00,23.0,21.0,-100.00,West,260,22.0,27.0,94,0.00,,,0.00,,2013-01-12 08:22:00,
2013-01-12 08:32:00,22.0,19.0,-100.00,West,260,25.0,29.0,92,0.00,,,0.00,,2013-01-12 08:32:00,
2013-01-12 08:42:00,22.0,19.0,-100.00,West,260,23.0,32.0,90,0.00,,,0.00,,2013-01-12 08:42:00,
2013-01-12 08:52:00,21.0,19.0,-100.00,West,260,22.0,35.0,89,0.00,,,0.00,,2013-01-12 08:52:00,
2013-01-12 09:02:00,21.0,18.0,-100.00,WSW,255,22.0,32.0,89,0.00,,,0.00,,2013-01-12 09:02:00,
2013-01-12 09:12:00,20.0,18.0,-100.00,West,265,25.0,32.0,89,0.00,,,0.00,,2013-01-12 09:12:00,
2013-01-12 09:22:00,20.0,18.0,-100.00,West,265,21.0,32.0,88,0.00,,,0.00,,2013-01-12 09:22:00,
2013-01-12 09:32:00,20.0,16.0,-100.00,West,265,24.0,34.0,85,0.00,,,0.00,,2013-01-12 09:32:00,
2013-01-12 09:42:00,20.0,16.0,-100.00,West,260,21.0,30.0,83,0.00,,,0.00,,2013-01-12 09:42:00,
2013-01-12 09:52:00,20.0,16.0,-100.00,West,260,23.0,32.0,83,0.00,,,0.00,,2013-01-12 09:52:00,
2013-01-12 10:02:00,19.0,16.0,-100.00,West,260,21.0,27.0,85,0.00,,,0.00,,2013-01-12 10:02:00,
2013-01-12 10:12:00,19.0,16.0,-100.00,West,260,21.0,32.0,86,0.00,,,0.00,,2013-01-12 10:12:00,
2013-01-12 10:22:00,19.0,14.0,-100.00,WSW,255,22.0,32.0,84,0.00,,,0.00,,2013-01-12 10:22:00,
2013-01-12 10:32:00,18.0,14.0,-100.00,WSW,255,26.0,30.0,85,0.00,,,0.00,,2013-01-12 10:32:00,
2013-01-12 10:42:00,18.0,14.0,-100.00,West,265,23.0,34.0,83,0.00,,,0.00,,2013-01-12 10:42:00,
2013-01-12 10:52:00,18.0,14.0,-100.00,West,265,24.0,32.0,82,0.00,,,0.00,,2013-01-12 10:52:00,
2013-01-12 11:02:00,18.0,14.0,-100.00,WSW,250,20.0,34.0,83,0.00,,,0.00,,2013-01-12 11:02:00,
2013-01-12 11:12:00,17.0,14.0,-100.00,WSW,255,20.0,31.0,83,0.00,,,0.00,,2013-01-12 11:12:00,
2013-01-12 11:22:00,17.0,12.0,-100.00,West,275,29.0,34.0,80,0.00,,,0.00,,2013-01-12 11:22:00,
2013-01-12 11:32:00,17.0,10.0,-100.00,West,270,27.0,34.0,79,0.00,,,0.00,,2013-01-12 11:32:00,
2013-01-12 11:42:00,17.0,10.0,-100.00,West,260,27.0,37.0,78,0.00,,,0.00,,2013-01-12 11:42:00,
2013-01-12 11:52:00,16.0,10.0,-100.00,West,265,27.0,34.0,77,0.00,,,0.00,,2013-01-12 11:52:00,
2013-01-12 12:02:00,16.0,10.0,-100.00,West,265,24.0,34.0,77,0.00,,,0.00,,2013-01-12 12:02:00,
2013-01-12 12:12:00,16.0,10.0,-100.00,West,260,26.0,32.0,78,0.00,,,0.00,,2013-01-12 12:12:00,
2013-01-12 12:22:00,16.0,10.0,-100.00,West,265,23.0,34.0,79,0.00,,,0.00,,2013-01-12 12:22:00,
2013-01-12 12:32:00,15.0,10.0,-100.00,West,270,23.0,30.0,79,0.00,,,0.00,,2013-01-12 12:32:00,
2013-01-12 12:42:00,15.0,10.0,-100.00,West,265,27.0,33.0,79,0.00,,,0.00,,2013-01-12 12:42:00,
2013-01-12 12:52:00,15.0,10.0,-100.00,West,265,21.0,33.0,78,0.00,,,0.00,,2013-01-12 12:52:00,
2013-01-12 13:02:00,15.0,9.0,-100.00,West,280,24.0,34.0,78,0.00,,,0.00,,2013-01-12 13:02:00,
2013-01-12 13:12:00,15.0,9.0,-100.00,West,270,24.0,34.0,75,0.00,,,0.00,,2013-01-12 13:12:00,
2013-01-12 13:22:00,14.0,9.0,-100.00,West,275,23.0,31.0,76,0.00,,,0.00,,2013-01-12 13:22:00,
2013-01-12 13:33:00,14.0,9.0,-100.00,West,265,22.0,30.0,78,0.00,,,0.00,,2013-01-12 13:33:00,
2013-01-12 13:42:00,14.0,9.0,-100.00,West,270,21.0,27.0,79,0.00,,,0.00,,2013-01-12 13:42:00,
2013-01-12 13:52:00,14.0,9.0,-100.00,West,270,19.0,26.0,77,0.00,,,0.00,,2013-01-12 13:52:00,
2013-01-12 14:02:00,14.0,9.0,-100.00,West,265,21.0,28.0,80,0.00,,,0.00,,2013-01-12 14:02:00,
2013-01-12 14:12:00,13.0,9.0,-100.00,West,275,22.0,29.0,80,0.00,,,0.00,,2013-01-12 14:12:00,
2013-01-12 14:22:00,13.0,7.0,-100.00,West,265,21.0,27.0,79,0.00,,,0.00,,2013-01-12 14:22:00,
2013-01-12 14:33:00,12.0,5.0,-100.00,West,270,24.0,29.0,76,0.00,,,0.00,,2013-01-12 14:33:00,
2013-01-12 14:43:00,12.0,7.0,-100.00,West,275,21.0,26.0,78,0.00,,,0.00,,2013-01-12 14:43:00,
2013-01-12 14:53:00,12.0,5.0,-100.00,West,265,22.0,29.0,76,0.00,,,0.00,,2013-01-12 14:53:00,
2013-01-12 15:03:00,11.0,5.0,-100.00,WSW,255,20.0,27.0,78,0.00,,,0.00,,2013-01-12 15:03:00,
2013-01-12 15:12:00,12.0,7.0,-100.00,West,265,20.0,27.0,78,0.00,,,0.00,,2013-01-12 15:12:00,
2013-01-12 15:22:00,11.0,5.0,-100.00,West,260,20.0,25.0,78,0.00,,,0.00,,2013-01-12 15:22:00,
2013-01-12 15:33:00,11.0,5.0,-100.00,West,265,21.0,27.0,77,0.00,,,0.00,,2013-01-12 15:33:00,
2013-01-12 15:42:00,11.0,5.0,-100.00,West,265,19.0,26.0,78,0.00,,,0.00,,2013-01-12 15:42:00,
2013-01-12 15:53:00,11.0,5.0,-100.00,WSW,255,18.0,25.0,78,0.00,,,0.00,,2013-01-12 15:53:00,
2013-01-12 16:03:00,11.0,5.0,-100.00,West,265,20.0,26.0,78,0.00,,,0.00,,2013-01-12 16:03:00,
2013-01-12 16:12:00,11.0,5.0,-100.00,West,265,21.0,27.0,78,0.00,,,0.00,,2013-01-12 16:12:00,
2013-01-12 16:23:00,11.0,5.0,-100.00,West,260,16.0,26.0,77,0.00,,,0.00,,2013-01-12 16:23:00,
2013-01-12 16:33:00,11.0,5.0,-100.00,West,270,20.0,25.0,76,0.00,,,0.00,,2013-01-12 16:33:00,
2013-01-12 16:42:00,10.0,5.0,-100.00,West,265,21.0,26.0,76,0.00,,,0.00,,2013-01-12 16:42:00,
2013-01-12 16:52:00,11.0,5.0,-100.00,West,260,19.0,24.0,76,0.00,,,0.00,,2013-01-12 16:52:00,
2013-01-12 17:02:00,11.0,5.0,-100.00,West,260,21.0,25.0,76,0.00,,,0.00,,2013-01-12 17:02:00,
2013-01-12 17:12:00,11.0,5.0,-100.00,West,260,21.0,25.0,76,0.00,,,0.00,,2013-01-12 17:12:00,
2013-01-12 17:22:00,11.0,5.0,-100.00,West,265,20.0,24.0,75,0.00,,,0.00,,2013-01-12 17:22:00,
2013-01-12 17:33:00,11.0,5.0,-100.00,West,280,17.0,22.0,75,0.00,,,0.00,,2013-01-12 17:33:00,
2013-01-12 17:42:00,11.0,5.0,-100.00,West,260,19.0,25.0,75,0.00,,,0.00,,2013-01-12 17:42:00,
2013-01-12 17:53:00,11.0,5.0,-100.00,West,260,18.0,25.0,75,0.00,,,0.00,,2013-01-12 17:53:00,
2013-01-12 18:03:00,11.0,5.0,-100.00,West,280,18.0,24.0,75,0.00,,,0.00,,2013-01-12 18:03:00,
2013-01-12 18:12:00,11.0,5.0,-100.00,West,265,18.0,25.0,75,0.00,,,0.00,,2013-01-12 18:12:00,
2013-01-12 18:22:00,11.0,3.0,-100.00,West,280,19.0,24.0,74,0.00,,,0.00,,2013-01-12 18:22:00,
2013-01-12 18:33:00,10.0,3.0,-100.00,WNW,285,19.0,26.0,74,0.00,,,0.00,,2013-01-12 18:33:00,
2013-01-12 18:42:00,10.0,3.0,-100.00,West,260,21.0,26.0,74,0.00,,,0.00,,2013-01-12 18:42:00,
2013-01-12 18:52:00,11.0,5.0,-100.00,West,265,21.0,26.0,73,0.00,,,0.00,,2013-01-12 18:52:00,
2013-01-12 19:03:00,10.0,3.0,-100.00,West,280,22.0,27.0,73,0.00,,,0.00,,2013-01-12 19:03:00,
2013-01-12 19:12:00,11.0,3.0,-100.00,West,270,20.0,27.0,72,0.00,,,0.00,,2013-01-12 19:12:00,
2013-01-12 19:23:00,10.0,3.0,-100.00,West,260,19.0,24.0,74,0.00,,,0.00,,2013-01-12 19:23:00,
2013-01-12 19:33:00,10.0,3.0,-100.00,West,270,20.0,25.0,73,0.00,,,0.00,,2013-01-12 19:33:00,
2013-01-12 19:42:00,11.0,3.0,-100.00,WSW,255,18.0,24.0,73,0.00,,,0.00,,2013-01-12 19:42:00,
2013-01-12 19:52:00,10.0,3.0,-100.00,West,270,22.0,27.0,70,0.00,,,0.00,,2013-01-12 19:52:00,
2013-01-12 20:03:00,10.0,3.0,-100.00,West,260,19.0,26.0,70,0.00,,,0.00,,2013-01-12 20:03:00,
2013-01-12 20:12:00,10.0,3.0,-100.00,West,270,18.0,24.0,71,0.00,,,0.00,,2013-01-12 20:12:00,
2013-01-12 20:22:00,10.0,3.0,-100.00,West,265,19.0,24.0,74,0.00,,,0.00,,2013-01-12 20:22:00,
2013-01-12 20:32:00,10.0,3.0,-100.00,West,265,21.0,24.0,72,0.00,,,0.00,,2013-01-12 20:32:00,
2013-01-12 20:42:00,11.0,3.0,-100.00,West,260,16.0,24.0,72,0.00,,,0.00,,2013-01-12 20:42:00,
2013-01-12 20:53:00,10.0,1.0,-100.00,West,265,17.0,24.0,70,0.00,,,0.00,,2013-01-12 20:53:00,
2013-01-12 21:03:00,9.0,3.0,-100.00,WNW,285,16.0,24.0,74,0.00,,,0.00,,2013-01-12 21:03:00,
2013-01-12 21:12:00,9.0,1.0,-100.00,West,265,21.0,26.0,72,0.00,,,0.00,,2013-01-12 21:12:00,
2013-01-12 21:22:00,10.0,1.0,-100.00,West,270,16.0,24.0,69,0.00,,,0.00,,2013-01-12 21:22:00,
2013-01-12 21:33:00,9.0,1.0,-100.00,West,280,17.0,21.0,69,0.00,,,0.00,,2013-01-12 21:33:00,
2013-01-12 21:42:00,9.0,1.0,-100.00,West,260,16.0,21.0,70,0.00,,,0.00,,2013-01-12 21:42:00,
2013-01-12 21:52:00,9.0,1.0,-100.00,West,275,14.0,21.0,71,0.00,,,0.00,,2013-01-12 21:52:00,
2013-01-12 22:02:00,9.0,1.0,-100.00,West,275,17.0,23.0,70,0.00,,,0.00,,2013-01-12 22:02:00,
2013-01-12 22:12:00,9.0,1.0,-100.00,West,275,16.0,21.0,70,0.00,,,0.00,,2013-01-12 22:12:00,
2013-01-12 22:22:00,8.0,1.0,-100.00,West,270,14.0,21.0,71,0.00,,,0.00,,2013-01-12 22:22:00,
2013-01-12 22:33:00,8.0,1.0,-100.00,West,275,14.0,18.0,73,0.00,,,0.00,,2013-01-12 22:33:00,
2013-01-12 22:43:00,8.0,1.0,-100.00,West,275,12.0,17.0,72,0.00,,,0.00,,2013-01-12 22:43:00,
2013-01-12 22:52:00,8.0,0.0,-100.00,WNW,285,15.0,18.0,70,0.00,,,0.00,,2013-01-12 22:52:00,
2013-01-12 23:02:00,8.0,0.0,-100.00,West,280,14.0,19.0,70,0.00,,,0.00,,2013-01-12 23:02:00,
2013-01-12 23:12:00,8.0,0.0,-100.00,WNW,285,12.0,19.0,70,0.00,,,0.00,,2013-01-12 23:12:00,
2013-01-12 23:22:00,8.0,0.0,-100.00,West,275,13.0,17.0,70,0.00,,,0.00,,2013-01-12 23:22:00,
2013-01-12 23:33:00,8.0,0.0,-100.00,West,275,12.0,17.0,70,0.00,,,0.00,,2013-01-12 23:33:00,
2013-01-12 23:43:00,7.0,0.0,-100.00,West,260,10.0,14.0,72,0.00,,,0.00,,2013-01-12 23:43:00,
2013-01-12 23:53:00,7.0,0.0,-100.00,West,265,14.0,17.0,72,0.00,,,0.00,,2013-01-12 23:53:00,